カタログに戻る

STARLINK-31079

運用中通信VLEO
NORAD 58598·PAYLOAD·🇺🇸 United States

打ち上げ Dec 19, 2023 から Cape Canaveral Space Force Station

Loading…

次のパス (今後24時間)

TLE

最新Source: CelesTrak SupGP

元期: Sep 14, 2026, 22:40 UTC

1 58598C 23200K   26257.94493056  .00297320  00000+0  96814-3 0  2574
2 58598  42.9674  90.8904 0031562 272.0562 165.4199 15.88666770    10

AllMySatでSTARLINK-31079をリアルタイム追跡

Download on the App Store